Regional Weather Roundup
Issued by NWS

Home | Current Version | Previous Version | Graphics & Text | Print | Product List | Glossary On
Versions: 1 2 3 4 5 6 7 8 9 10 11 12 13 14 15 16 17 18 19 20 21 22 23 24 25 26 27 28 29 30 31 32 33 34 35 36 37 38 39 40 41 42 43 44 45 46 47 48 49 50
000
ASUS45 KCYS 310310
RWRWY

WYOMING REGIONAL WEATHER ROUNDUP
NATIONAL WEATHER SERVICE CHEYENNE WY
900 PM MDT SAT AUG 30 2014

NOTE:  "FAIR" INDICATES FEW OR NO CLOUDS BELOW 12,000 FEET
WITH NO SIGNIFICANT WEATHER AND/OR OBSTRUCTIONS TO VISIBILITY.

WYZ001-310400-
YELLOWSTONE NATIONAL PARK

CITY           SKY/WX    TMP DP  RH WIND       PRES   REMARKS
LK YELLOWSTONE   N/A     40  38  93 VRB3      30.11R
W YELLOWSTONE  NOT AVBL

$$
WYZ002>013-054>058-071-098>099-310400-
NORTHERN WYOMING

CITY           SKY/WX    TMP DP  RH WIND       PRES   REMARKS
JACKSON        CLOUDY    52  46  82 N9        29.99
CODY             N/A    N/A N/A N/A MISG        N/A
GREYBULL       MOCLDY    57  54  89 E3        29.86R
WORLAND        CLOUDY    58  52  80 E5        29.88F
SHERIDAN       CLOUDY    57  54  89 W6        29.84R
BUFFALO        CLOUDY    56  52  86 N5        29.88S
GILLETTE       CLOUDY    56  54  93 SW5       29.84F
HULETT         LGT RAIN  63  50  63 MISG      29.84
NEWCASTLE      FAIR      64  50  59 NW21G33   29.84

$$
WYZ014>020-022>026-101>103-310400-
CENTRAL WYOMING

CITY           SKY/WX    TMP DP  RH WIND       PRES   REMARKS
BIG PINEY      MOCLDY    53  45  74 NE7       30.03R
PINEDALE       PTCLDY    48  45  87 CALM      30.05F
DUBOIS         FAIR      46  43  87 CALM      30.01R
LANDER         LGT RAIN  54  47  77 E22       29.90F
RIVERTON       MOCLDY    57  49  74 W9G22     29.97R
CASPER         PTCLDY    54  50  86 NW8       29.93R
DOUGLAS        CLOUDY    58  49  72 W9        29.91S

$$
WYZ021-027>030-104>119-310400-
SOUTHERN WYOMING

CITY           SKY/WX    TMP DP  RH WIND       PRES   REMARKS
EVANSTON       MOCLDY    62  41  46 SW6       30.02F
KEMMERER       MOCLDY   N/A N/A N/A W7        30.04R
FORT BRIDGER   FAIR      63  41  43 SW7       30.04S
ROCK SPRINGS   PTCLDY    57  44  62 S8        30.02R
DIXON          FAIR      60  50  70 CALM      30.05S
RAWLINS        PTCLDY    56  44  64 SW9       30.04S
LARAMIE        MOCLDY    50  46  86 SW7       30.07R
CHEYENNE       CLOUDY    62  46  55 SW7       30.02F
TORRINGTON     CLOUDY    76  44  32 W22G37    29.87R
PINE BLUFFS    FAIR      64  50  59 W6        29.96F

$$



USA.gov is the U.S. government's official web portal to all federal, state and local government web resources and services.